Torna al catalogo

Rassvet-1 3

AttivoScienzaSSO
NORAD 57171·PAYLOAD·🇷🇺 Russia

Lanciato Jun 27, 2023 da Vostochny Cosmodrome

Loading…

Prossimi Passaggi (prossime 24 ore)

TLE

AggiornatoSource: Space-Track

Epoca: Sep 14, 2026, 15:08 UTC

1 57171U 23091F   26257.63096471  .00006530  00000-0  26102-3 0  9992
2 57171  97.5016 319.4204 0011455 151.0018 209.1859 15.25399063177794

Traccia Rassvet-1 3 in tempo reale con AllMySat

Download on the App Store